Hourly Weather Omagh

Today, 30 September, Wednesday

Time Temperature Precipitation Wind Pressure Humidity
00:00 +10°C° 0 mm 8 mps 743 mmHg 95%
01:00 +10°C° 2.2 mm 7 mps 743 mmHg 96%
02:00 +10°C° 2.2 mm 6 mps 742 mmHg 96%
03:00 +12°C° 2.2 mm 5 mps 741 mmHg 97%
04:00 +12°C° 2.7 mm 4 mps 740 mmHg 97%
05:00 +13°C° 2.7 mm 2 mps 740 mmHg 98%
06:00 +13°C° 0 mm 2 mps 740 mmHg 98%
07:00 +13°C° 0.1 mm 2 mps 740 mmHg 96%
08:00 +13°C° 0.1 mm 2 mps 740 mmHg 95%
09:00 +13°C° 0.1 mm 2 mps 740 mmHg 93%
10:00 +12°C° 0.6 mm 3 mps 741 mmHg 93%
11:00 +11°C° 0.6 mm 3 mps 741 mmHg 93%
12:00 +11°C° 0.6 mm 4 mps 741 mmHg 93%
13:00 +10°C° 0.2 mm 4 mps 742 mmHg 91%
14:00 +10°C° 0.2 mm 4 mps 742 mmHg 89%
15:00 +10°C° 0.2 mm 3 mps 742 mmHg 86%
16:00 +9°C° 0.2 mm 3 mps 742 mmHg 86%
17:00 +9°C° 0.2 mm 3 mps 742 mmHg 86%
18:00 +8°C° 0.2 mm 2 mps 742 mmHg 87%
19:00 +8°C° 0 mm 2 mps 743 mmHg 87%
20:00 +7°C° 0 mm 2 mps 743 mmHg 87%
21:00 +7°C° 0 mm 1 mps 743 mmHg 88%
22:00 +7°C° 0 mm 1 mps 743 mmHg 89%
23:00 +6°C° 0 mm 1 mps 743 mmHg 89%

Tomorrow, 1 October, Thursday

Time Temperature Precipitation Wind Pressure Humidity
00:00 +6°C° 0 mm 1 mps 742 mmHg 90%
01:00 +6°C° 0 mm 1 mps 742 mmHg 91%
02:00 +5°C° 0 mm 1 mps 742 mmHg 92%
03:00 +5°C° 0 mm 1 mps 741 mmHg 93%
04:00 +5°C° 0 mm 1 mps 741 mmHg 94%
05:00 +5°C° 0 mm 1 mps 741 mmHg 94%
06:00 +5°C° 0 mm 1 mps 741 mmHg 95%
07:00 +6°C° 0 mm 1 mps 740 mmHg 92%
08:00 +7°C° 0 mm 1 mps 740 mmHg 89%
09:00 +8°C° 0 mm 1 mps 740 mmHg 87%
10:00 +9°C° 0.1 mm 1 mps 739 mmHg 82%
11:00 +9°C° 0.1 mm 2 mps 739 mmHg 77%
12:00 +12°C° 0.1 mm 2 mps 739 mmHg 72%
13:00 +12°C° 0.4 mm 2 mps 739 mmHg 75%
14:00 +10°C° 0.4 mm 2 mps 738 mmHg 77%
15:00 +10°C° 0.4 mm 2 mps 738 mmHg 79%
16:00 +9°C° 0.6 mm 2 mps 738 mmHg 83%
17:00 +8°C° 0.6 mm 2 mps 738 mmHg 86%
18:00 +7°C° 0.6 mm 2 mps 738 mmHg 90%
19:00 +6°C° 0 mm 2 mps 738 mmHg 91%
20:00 +7°C° 0 mm 1 mps 738 mmHg 92%
21:00 +6°C° 0 mm 1 mps 739 mmHg 93%
22:00 +6°C° 0 mm 1 mps 739 mmHg 93%
23:00 +5°C° 0 mm 1 mps 739 mmHg 93%

Day after tomorrow, 2 October, Friday

Time Temperature Precipitation Wind Pressure Humidity
00:00 +5°C° 0 mm 1 mps 739 mmHg 93%
01:00 +5°C° 0 mm 1 mps 740 mmHg 93%
02:00 +5°C° 0 mm 1 mps 740 mmHg 94%
03:00 +4°C° 0 mm 1 mps 740 mmHg 94%
04:00 +4°C° 0 mm 1 mps 741 mmHg 94%
05:00 +4°C° 0 mm 1 mps 741 mmHg 94%
06:00 +4°C° 0 mm 1 mps 742 mmHg 94%
07:00 +6°C° 0 mm 1 mps 742 mmHg 92%
08:00 +7°C° 0 mm 1 mps 743 mmHg 90%
09:00 +9°C° 0 mm 1 mps 743 mmHg 89%
10:00 +10°C° 0 mm 1 mps 744 mmHg 83%
11:00 +11°C° 0 mm 1 mps 744 mmHg 77%
12:00 +13°C° 0 mm 1 mps 745 mmHg 71%
13:00 +13°C° 0 mm 2 mps 745 mmHg 70%
14:00 +13°C° 0 mm 2 mps 745 mmHg 69%
15:00 +12°C° 0 mm 3 mps 745 mmHg 68%
16:00 +12°C° 0 mm 2 mps 745 mmHg 76%
17:00 +9°C° 0 mm 2 mps 746 mmHg 83%
18:00 +8°C° 0 mm 2 mps 746 mmHg 91%
19:00 +7°C° 0 mm 2 mps 746 mmHg 93%
20:00 +7°C° 0 mm 2 mps 747 mmHg 95%
21:00 +6°C° 0 mm 2 mps 747 mmHg 97%
22:00 +7°C° 0 mm 2 mps 747 mmHg 96%
23:00 +7°C° 0 mm 2 mps 746 mmHg 95%

3 October, Saturday

Time Temperature Precipitation Wind Pressure Humidity
00:00 +7°C° 0 mm 2 mps 746 mmHg 95%
01:00 +7°C° 0 mm 2 mps 746 mmHg 94%
02:00 +7°C° 0 mm 2 mps 746 mmHg 94%
03:00 +6°C° 0 mm 2 mps 746 mmHg 94%
04:00 +6°C° 0 mm 2 mps 745 mmHg 94%
05:00 +6°C° 0 mm 2 mps 745 mmHg 94%
06:00 +5°C° 0 mm 2 mps 745 mmHg 94%
07:00 +7°C° 0 mm 3 mps 744 mmHg 90%
08:00 +7°C° 0 mm 4 mps 744 mmHg 86%
09:00 +8°C° 0 mm 4 mps 744 mmHg 82%
10:00 +8°C° 0 mm 4 mps 743 mmHg 79%
11:00 +9°C° 0 mm 5 mps 743 mmHg 76%
12:00 +9°C° 0 mm 5 mps 742 mmHg 73%
13:00 +9°C° 0.1 mm 5 mps 742 mmHg 75%
14:00 +8°C° 0.1 mm 5 mps 741 mmHg 77%
15:00 +8°C° 0.1 mm 5 mps 741 mmHg 78%
16:00 +7°C° 0.2 mm 5 mps 740 mmHg 81%
17:00 +7°C° 0.2 mm 6 mps 740 mmHg 83%
18:00 +7°C° 0.2 mm 6 mps 739 mmHg 85%
19:00 +7°C° 0.8 mm 6 mps 739 mmHg 88%
20:00 +6°C° 0.8 mm 7 mps 738 mmHg 91%
21:00 +6°C° 0.8 mm 7 mps 738 mmHg 94%
22:00 +7°C° 0.6 mm 8 mps 737 mmHg 94%
23:00 +7°C° 0.6 mm 8 mps 737 mmHg 93%

4 October, Sunday

Time Temperature Precipitation Wind Pressure Humidity
00:00 +7°C° 0.6 mm 9 mps 736 mmHg 93%
01:00 +7°C° 1 mm 9 mps 736 mmHg 94%
02:00 +7°C° 1 mm 9 mps 736 mmHg 94%
03:00 +8°C° 1 mm 9 mps 735 mmHg 94%
04:00 +9°C° 1.5 mm 8 mps 735 mmHg 94%
05:00 +9°C° 1.5 mm 8 mps 735 mmHg 95%
06:00 +9°C° 1.5 mm 8 mps 735 mmHg 95%
07:00 +10°C° 1.3 mm 7 mps 735 mmHg 96%
08:00 +10°C° 1.3 mm 6 mps 735 mmHg 96%
09:00 +10°C° 1.3 mm 5 mps 735 mmHg 97%
10:00 +12°C° 0.9 mm 5 mps 735 mmHg 97%
11:00 +12°C° 0.9 mm 5 mps 735 mmHg 97%
12:00 +12°C° 0.9 mm 5 mps 735 mmHg 97%
13:00 +12°C° 0.8 mm 5 mps 734 mmHg 96%
14:00 +12°C° 0.8 mm 5 mps 734 mmHg 96%
15:00 +13°C° 0.8 mm 6 mps 734 mmHg 96%
16:00 +13°C° 0.7 mm 6 mps 734 mmHg 96%
17:00 +13°C° 0.7 mm 6 mps 734 mmHg 96%
18:00 +12°C° 0.7 mm 7 mps 733 mmHg 96%
19:00 +13°C° 2.6 mm 6 mps 734 mmHg 96%
20:00 +11°C° 2.6 mm 6 mps 734 mmHg 96%
21:00 +12°C° 2.6 mm 5 mps 735 mmHg 96%
22:00 +12°C° 2.4 mm 4 mps 735 mmHg 97%
23:00 +11°C° 2.4 mm 3 mps 735 mmHg 97%

5 October, Monday

Time Temperature Precipitation Wind Pressure Humidity
00:00 +12°C° 2.4 mm 1 mps 736 mmHg 97%
01:00 +11°C° 0.1 mm 1 mps 736 mmHg 97%
02:00 +10°C° 0.1 mm 1 mps 736 mmHg 97%
03:00 +9°C° 0.1 mm 1 mps 737 mmHg 97%
04:00 +9°C° 0 mm 1 mps 737 mmHg 97%
05:00 +9°C° 0 mm 1 mps 737 mmHg 97%
06:00 +8°C° 0 mm 1 mps 738 mmHg 97%
07:00 +9°C° 0 mm 1 mps 738 mmHg 95%
08:00 +10°C° 0 mm 1 mps 738 mmHg 94%
09:00 +11°C° 0 mm 1 mps 739 mmHg 93%
10:00 +12°C° 0 mm 1 mps 739 mmHg 89%
11:00 +13°C° 0 mm 2 mps 740 mmHg 85%
12:00 +14°C° 0 mm 2 mps 740 mmHg 81%
13:00 +14°C° 0.1 mm 2 mps 740 mmHg 81%
14:00 +14°C° 0.1 mm 2 mps 740 mmHg 80%
15:00 +15°C° 0.1 mm 2 mps 740 mmHg 79%
16:00 +13°C° 0.1 mm 2 mps 740 mmHg 84%
17:00 +12°C° 0.1 mm 2 mps 741 mmHg 89%
18:00 +10°C° 0.1 mm 2 mps 741 mmHg 94%
19:00 +9°C° 0 mm 2 mps 741 mmHg 94%
20:00 +9°C° 0 mm 2 mps 741 mmHg 95%
21:00 +9°C° 0 mm 1 mps 742 mmHg 96%
22:00 +9°C° 0 mm 1 mps 742 mmHg 96%
23:00 +9°C° 0 mm 1 mps 742 mmHg 96%
Show more